• In Österreich
  • Länderverzeichnis
  • Für 7 Tage
  • Wassertemperatur
  • Satellitenkarten
  • Wetterkarte
  • News
  • Widgets
  • user-avatar
    Anmelden

    Stündliche Wetter Simanovo

    Heute, 25 September, Dienstag

    Zeit Temperatur Niederschläge Wind Luftdruck Luftfeuchtigkeit
    00:00 +6°C° 1.8 mm 4 m/S 731 mmHg 93%
    01:00 +6°C° 1.8 mm 4 m/S 730 mmHg 94%
    02:00 +6°C° 0 mm 4 m/S 729 mmHg 94%
    03:00 +6°C° 1.7 mm 4 m/S 729 mmHg 94%
    04:00 +6°C° 1.7 mm 4 m/S 729 mmHg 94%
    05:00 +6°C° 1.7 mm 5 m/S 728 mmHg 94%
    06:00 +6°C° 0.9 mm 5 m/S 729 mmHg 93%
    07:00 +6°C° 0.9 mm 5 m/S 729 mmHg 92%
    08:00 +5°C° 0 mm 6 m/S 729 mmHg 91%
    09:00 +5°C° 0.4 mm 6 m/S 730 mmHg 90%
    10:00 +5°C° 0.4 mm 6 m/S 731 mmHg 89%
    11:00 +5°C° 0.4 mm 7 m/S 731 mmHg 88%
    12:00 +6°C° 0.4 mm 7 m/S 732 mmHg 86%
    13:00 +6°C° 0.4 mm 7 m/S 733 mmHg 85%
    14:00 +6°C° 0.4 mm 7 m/S 734 mmHg 84%
    15:00 +5°C° 0.2 mm 7 m/S 735 mmHg 82%
    16:00 +5°C° 0.2 mm 7 m/S 735 mmHg 81%
    17:00 +5°C° 0.2 mm 6 m/S 736 mmHg 79%
    18:00 +5°C° 0 mm 6 m/S 737 mmHg 80%
    19:00 +4°C° 0 mm 6 m/S 738 mmHg 80%
    20:00 +3°C° 0 mm 6 m/S 739 mmHg 80%
    21:00 +3°C° 0 mm 6 m/S 739 mmHg 81%
    22:00 +2°C° 0 mm 5 m/S 740 mmHg 82%
    23:00 +2°C° 0 mm 5 m/S 741 mmHg 84%

    Morgen, 26 September, Mittwoch

    Zeit Temperatur Niederschläge Wind Luftdruck Luftfeuchtigkeit
    00:00 +2°C° 0 mm 5 m/S 742 mmHg 83%
    01:00 +1°C° 0 mm 5 m/S 742 mmHg 82%
    02:00 +1°C° 0 mm 5 m/S 743 mmHg 82%
    03:00 +1°C° 0 mm 4 m/S 744 mmHg 82%
    04:00 0°C° 0 mm 4 m/S 744 mmHg 82%
    05:00 0°C° 0 mm 4 m/S 745 mmHg 82%
    06:00 +1°C° 0 mm 4 m/S 745 mmHg 79%
    07:00 +1°C° 0 mm 4 m/S 745 mmHg 76%
    08:00 +3°C° 0 mm 4 m/S 745 mmHg 73%
    09:00 +5°C° 0 mm 4 m/S 745 mmHg 71%
    10:00 +6°C° 0 mm 5 m/S 745 mmHg 70%
    11:00 +8°C° 0 mm 5 m/S 745 mmHg 68%
    12:00 +8°C° 0 mm 5 m/S 745 mmHg 67%
    13:00 +9°C° 0 mm 5 m/S 744 mmHg 65%
    14:00 +9°C° 0 mm 5 m/S 744 mmHg 64%
    15:00 +9°C° 0 mm 5 m/S 743 mmHg 65%
    16:00 +8°C° 0 mm 5 m/S 742 mmHg 66%
    17:00 +8°C° 0 mm 5 m/S 741 mmHg 67%
    18:00 +7°C° 0.3 mm 6 m/S 740 mmHg 70%
    19:00 +6°C° 0.3 mm 7 m/S 739 mmHg 73%
    20:00 +5°C° 0.3 mm 8 m/S 738 mmHg 75%
    21:00 +5°C° 1.3 mm 8 m/S 737 mmHg 79%
    22:00 +5°C° 1.3 mm 8 m/S 735 mmHg 83%
    23:00 +5°C° 1.3 mm 9 m/S 734 mmHg 87%

    übermorgen, 27 September, Donnerstag

    Zeit Temperatur Niederschläge Wind Luftdruck Luftfeuchtigkeit
    00:00 +5°C° 1.5 mm 8 m/S 733 mmHg 88%
    01:00 +5°C° 1.5 mm 8 m/S 732 mmHg 88%
    02:00 +4°C° 1.5 mm 8 m/S 731 mmHg 89%
    03:00 +5°C° 1 mm 7 m/S 730 mmHg 90%
    04:00 +5°C° 1 mm 6 m/S 729 mmHg 91%
    05:00 +6°C° 1 mm 5 m/S 729 mmHg 92%
    06:00 +5°C° 0.2 mm 6 m/S 729 mmHg 87%
    07:00 +5°C° 0.2 mm 6 m/S 729 mmHg 82%
    08:00 +5°C° 0.2 mm 6 m/S 729 mmHg 77%
    09:00 +7°C° 0.2 mm 6 m/S 730 mmHg 74%
    10:00 +6°C° 0.2 mm 7 m/S 730 mmHg 71%
    11:00 +8°C° 0.2 mm 7 m/S 730 mmHg 68%
    12:00 +8°C° 0.1 mm 7 m/S 730 mmHg 67%
    13:00 +7°C° 0.1 mm 8 m/S 730 mmHg 66%
    14:00 +7°C° 0.1 mm 8 m/S 731 mmHg 64%
    15:00 +6°C° 0.1 mm 7 m/S 731 mmHg 67%
    16:00 +7°C° 0.1 mm 6 m/S 731 mmHg 69%
    17:00 +5°C° 0.1 mm 6 m/S 732 mmHg 71%
    18:00 +5°C° 0 mm 6 m/S 732 mmHg 72%
    19:00 +4°C° 0 mm 6 m/S 732 mmHg 73%
    20:00 +4°C° 0 mm 6 m/S 733 mmHg 74%
    21:00 +4°C° 0 mm 6 m/S 733 mmHg 73%
    22:00 +4°C° 0 mm 6 m/S 733 mmHg 72%
    23:00 +4°C° 0 mm 6 m/S 734 mmHg 71%

    28 September, Freitag

    Zeit Temperatur Niederschläge Wind Luftdruck Luftfeuchtigkeit
    00:00 +3°C° 0 mm 6 m/S 734 mmHg 72%
    01:00 +3°C° 0 mm 6 m/S 735 mmHg 74%
    02:00 +3°C° 0 mm 5 m/S 735 mmHg 75%
    03:00 +3°C° 0 mm 5 m/S 735 mmHg 76%
    04:00 +2°C° 0 mm 5 m/S 735 mmHg 78%
    05:00 +2°C° 0 mm 5 m/S 735 mmHg 79%
    06:00 +3°C° 0.2 mm 4 m/S 734 mmHg 81%
    07:00 +4°C° 0.2 mm 4 m/S 734 mmHg 82%
    08:00 +4°C° 0.2 mm 4 m/S 733 mmHg 83%
    09:00 +4°C° 1.1 mm 3 m/S 733 mmHg 84%
    10:00 +4°C° 1.1 mm 3 m/S 732 mmHg 85%
    11:00 +3°C° 1.1 mm 3 m/S 731 mmHg 86%
    12:00 +4°C° 0.8 mm 3 m/S 730 mmHg 86%
    13:00 +4°C° 0.8 mm 3 m/S 730 mmHg 87%
    14:00 +4°C° 0.8 mm 3 m/S 730 mmHg 87%
    15:00 +4°C° 0.2 mm 3 m/S 731 mmHg 85%
    16:00 +4°C° 0.2 mm 4 m/S 731 mmHg 84%
    17:00 +2°C° 0.2 mm 5 m/S 732 mmHg 83%
    18:00 +2°C° 0 mm 5 m/S 733 mmHg 82%
    19:00 +1°C° 0 mm 5 m/S 734 mmHg 80%
    20:00 0°C° 0 mm 5 m/S 736 mmHg 79%
    21:00 -1°C° 0 mm 5 m/S 736 mmHg 80%
    22:00 -1°C° 0 mm 5 m/S 737 mmHg 81%
    23:00 -2°C° 0 mm 5 m/S 738 mmHg 82%

    29 September, Samstag

    Zeit Temperatur Niederschläge Wind Luftdruck Luftfeuchtigkeit
    00:00 -2°C° 0 mm 4 m/S 738 mmHg 82%
    01:00 -2°C° 0 mm 4 m/S 739 mmHg 81%
    02:00 -3°C° 0 mm 4 m/S 740 mmHg 81%
    03:00 -3°C° 0 mm 4 m/S 740 mmHg 83%
    04:00 -3°C° 0 mm 4 m/S 741 mmHg 85%
    05:00 -3°C° 0 mm 4 m/S 741 mmHg 87%
    06:00 -2°C° 0 mm 4 m/S 742 mmHg 83%
    07:00 -1°C° 0 mm 5 m/S 743 mmHg 79%
    08:00 0°C° 0 mm 5 m/S 743 mmHg 75%
    09:00 +1°C° 0 mm 5 m/S 744 mmHg 68%
    10:00 +2°C° 0 mm 5 m/S 745 mmHg 60%
    11:00 +3°C° 0 mm 5 m/S 745 mmHg 52%
    12:00 +3°C° 0 mm 5 m/S 746 mmHg 50%
    13:00 +3°C° 0 mm 5 m/S 746 mmHg 49%
    14:00 +3°C° 0 mm 5 m/S 746 mmHg 47%
    15:00 +3°C° 0 mm 4 m/S 747 mmHg 53%
    16:00 +1°C° 0 mm 4 m/S 747 mmHg 58%
    17:00 +1°C° 0 mm 3 m/S 747 mmHg 64%
    18:00 +1°C° 0 mm 3 m/S 748 mmHg 70%
    19:00 0°C° 0 mm 3 m/S 748 mmHg 76%
    20:00 -1°C° 0 mm 3 m/S 749 mmHg 82%
    21:00 -1°C° 0 mm 3 m/S 749 mmHg 82%
    22:00 -1°C° 0 mm 3 m/S 749 mmHg 82%
    23:00 -1°C° 0 mm 3 m/S 750 mmHg 82%

    30 September, Sonntag

    Zeit Temperatur Niederschläge Wind Luftdruck Luftfeuchtigkeit
    00:00 -1°C° 0 mm 3 m/S 750 mmHg 81%
    01:00 -2°C° 0 mm 3 m/S 750 mmHg 79%
    02:00 -2°C° 0 mm 3 m/S 750 mmHg 78%
    03:00 -2°C° 0 mm 3 m/S 750 mmHg 77%
    04:00 -3°C° 0 mm 4 m/S 750 mmHg 75%
    05:00 -2°C° 0 mm 4 m/S 749 mmHg 74%
    06:00 -1°C° 0 mm 5 m/S 749 mmHg 68%
    07:00 0°C° 0 mm 5 m/S 749 mmHg 62%
    08:00 +1°C° 0 mm 6 m/S 749 mmHg 57%
    09:00 +2°C° 0 mm 6 m/S 748 mmHg 58%
    10:00 +3°C° 0 mm 7 m/S 748 mmHg 59%
    11:00 +4°C° 0 mm 7 m/S 748 mmHg 60%
    12:00 +5°C° 0 mm 7 m/S 747 mmHg 60%
    13:00 +6°C° 0 mm 7 m/S 747 mmHg 60%
    14:00 +6°C° 0 mm 7 m/S 746 mmHg 60%
    15:00 +7°C° 0 mm 6 m/S 746 mmHg 65%
    16:00 +5°C° 0 mm 6 m/S 746 mmHg 70%
    17:00 +6°C° 0 mm 5 m/S 746 mmHg 75%
    18:00 +6°C° 0 mm 5 m/S 746 mmHg 76%
    19:00 +5°C° 0 mm 5 m/S 746 mmHg 78%
    20:00 +5°C° 0 mm 5 m/S 746 mmHg 79%
    21:00 +5°C° 0 mm 5 m/S 746 mmHg 80%
    22:00 +5°C° 0 mm 5 m/S 746 mmHg 81%
    23:00 +5°C° 0 mm 5 m/S 746 mmHg 82%
    Mehr zeigen